| time (UTC) | temp F | wind direction | speed MPH | gust MPH | rain 1hr in | rain 24hr in | rain mn in | humidity % | barometer mb |
| 20260502233330 | 54 | 88 | 0.0 | 0.0 | 0.00 | 0.34 | 0.34 | 92 | 1010.9 |
| 20260502233050 | 54 | 88 | 0.0 | 0.0 | 0.00 | 0.00 | 0.34 | 92 | 1011.0 |
| 20260502232857 | 54 | 87 | 0.0 | 0.0 | 0.00 | 0.34 | 0.34 | 92 | 1011.0 |
| 20260502232337 | 54 | 88 | 0.0 | 0.0 | 0.00 | 0.34 | 0.34 | 92 | 1010.9 |
| 20260502231902 | 54 | 88 | 0.0 | 0.0 | 0.00 | 0.34 | 0.34 | 92 | 1010.9 |
| 20260502231505 | 54 | 88 | 0.0 | 0.0 | 0.00 | 0.00 | 0.34 | 92 | 1010.9 |
| 20260502231340 | 54 | 88 | 0.0 | 0.0 | 0.00 | 0.34 | 0.34 | 92 | 1010.8 |
| 20260502230842 | 54 | 88 | 0.0 | 0.0 | 0.00 | 0.34 | 0.34 | 92 | 1010.7 |
| 20260502230335 | 54 | 88 | 0.0 | 0.0 | 0.00 | 0.34 | 0.34 | 92 | 1010.7 |
| 20260502230033 | 54 | 88 | 0.0 | 0.0 | 0.00 | 0.00 | 0.34 | 92 | 1010.8 |
| 20260502225902 | 55 | 87 | 0.0 | 0.0 | 0.00 | 0.34 | 0.34 | 92 | 1010.9 |
| 20260502225408 | 55 | 87 | 0.0 | 0.0 | 0.00 | 0.34 | 0.34 | 92 | 1010.8 |
| 20260502224847 | 55 | 88 | 0.0 | 0.0 | 0.00 | 0.34 | 0.34 | 91 | 1010.9 |
| 20260502224537 | 54 | 87 | 0.0 | 0.0 | 0.00 | 0.00 | 0.34 | 91 | 1010.9 |
| 20260502224346 | 55 | 88 | 0.0 | 0.0 | 0.00 | 0.34 | 0.34 | 91 | 1010.7 |
| 20260502223848 | 55 | 88 | 0.0 | 0.0 | 0.00 | 0.34 | 0.34 | 91 | 1010.7 |
| 20260502223351 | 55 | 88 | 0.0 | 0.0 | 0.00 | 0.34 | 0.34 | 91 | 1010.7 |
| 20260502223011 | 54 | 88 | 0.0 | 0.0 | 0.00 | 0.00 | 0.34 | 91 | 1010.9 |
| 20260502222853 | 55 | 88 | 0.0 | 0.0 | 0.00 | 0.34 | 0.34 | 91 | 1010.8 |
| 20260502222354 | 55 | 87 | 0.0 | 0.0 | 0.00 | 0.34 | 0.34 | 91 | 1010.8 |
| 20260502221833 | 55 | 88 | 0.0 | 0.0 | 0.00 | 0.34 | 0.34 | 91 | 1010.8 |
| 20260502221532 | 54 | 87 | 0.0 | 0.0 | 0.00 | 0.00 | 0.34 | 91 | 1010.8 |
| 20260502221335 | 55 | 88 | 0.0 | 0.0 | 0.00 | 0.34 | 0.34 | 91 | 1010.7 |
| 20260502220903 | 55 | 88 | 0.0 | 0.0 | 0.00 | 0.34 | 0.34 | 91 | 1010.6 |
| 20260502220039 | 54 | 88 | 0.0 | 0.0 | 0.00 | 0.00 | 0.34 | 90 | 1010.6 |
| 20260502215838 | 55 | 88 | 0.0 | 0.0 | 0.00 | 0.34 | 0.34 | 90 | 1010.5 |
| 20260502215339 | 55 | 87 | 0.0 | 0.0 | 0.00 | 0.34 | 0.34 | 91 | 1010.5 |
| 20260502214910 | 55 | 88 | 0.0 | 0.0 | 0.00 | 0.34 | 0.34 | 90 | 1010.6 |
| 20260502214517 | 55 | 88 | 0.0 | 0.0 | 0.00 | 0.00 | 0.34 | 90 | 1010.7 |
| 20260502214331 | 55 | 87 | 0.0 | 0.0 | 0.00 | 0.34 | 0.34 | 90 | 1010.6 |
| 20260502213834 | 55 | 88 | 0.0 | 1.0 | 0.00 | 0.34 | 0.34 | 89 | 1010.6 |
| 20260502213334 | 55 | 88 | 0.0 | 1.0 | 0.00 | 0.34 | 0.34 | 89 | 1010.5 |
| 20260502213026 | 55 | 88 | 0.0 | 0.0 | 0.00 | 0.00 | 0.34 | 90 | 1010.6 |
| 20260502212830 | 56 | 88 | 0.0 | 0.0 | 0.00 | 0.34 | 0.34 | 90 | 1010.4 |
| 20260502212330 | 55 | 88 | 0.0 | 1.0 | 0.00 | 0.34 | 0.34 | 90 | 1010.5 |
| 20260502211831 | 55 | 88 | 0.0 | 2.0 | 0.00 | 0.34 | 0.34 | 90 | 1010.5 |
| 20260502211557 | 55 | 88 | 0.0 | 0.0 | 0.00 | 0.00 | 0.34 | 90 | 1010.6 |
| 20260502211333 | 55 | 88 | 1.0 | 2.0 | 0.00 | 0.34 | 0.34 | 91 | 1010.5 |
| 20260502210901 | 55 | 76 | 0.0 | 2.0 | 0.00 | 0.34 | 0.34 | 92 | 1010.5 |
| 20260502210353 | 55 | 76 | 0.0 | 2.0 | 0.00 | 0.34 | 0.34 | 91 | 1010.5 |
| 20260502210032 | 54 | 76 | 0.0 | 0.0 | 0.00 | 0.00 | 0.34 | 91 | 1010.6 |
| 20260502205833 | 55 | 76 | 0.0 | 2.0 | 0.00 | 0.34 | 0.34 | 91 | 1010.6 |
| 20260502205337 | 55 | 76 | 1.0 | 1.0 | 0.00 | 0.34 | 0.34 | 92 | 1010.6 |
| 20260502204837 | 55 | 76 | 0.0 | 2.0 | 0.00 | 0.34 | 0.34 | 92 | 1010.6 |
| 20260502204524 | 54 | 76 | 0.0 | 0.0 | 0.00 | 0.00 | 0.34 | 92 | 1010.6 |
| 20260502204405 | 55 | 85 | 0.0 | 2.0 | 0.00 | 0.34 | 0.34 | 92 | 1010.6 |
| 20260502203841 | 55 | 85 | 0.0 | 2.0 | 0.00 | 0.34 | 0.34 | 92 | 1010.6 |
| 20260502203343 | 55 | 86 | 1.0 | 2.0 | 0.00 | 0.34 | 0.34 | 92 | 1010.6 |
| 20260502203112 | 54 | 79 | 0.0 | 0.0 | 0.00 | 0.00 | 0.34 | 92 | 1010.7 |
| 20260502202845 | 55 | 67 | 0.0 | 1.0 | 0.00 | 0.34 | 0.34 | 92 | 1010.6 |
| 20260502202346 | 55 | 67 | 0.0 | 2.0 | 0.00 | 0.34 | 0.34 | 93 | 1010.6 |
| 20260502201915 | 55 | 104 | 0.0 | 2.0 | 0.00 | 0.34 | 0.34 | 93 | 1010.6 |
| 20260502201532 | 54 | 69 | 0.0 | 0.0 | 0.00 | 0.00 | 0.34 | 93 | 1010.7 |
| 20260502201355 | 55 | 70 | 0.0 | 2.0 | 0.00 | 0.34 | 0.34 | 93 | 1010.6 |
| 20260502200855 | 54 | 69 | 1.0 | 2.0 | 0.00 | 0.34 | 0.34 | 93 | 1010.4 |
| 20260502200346 | 54 | 318 | 0.0 | 2.0 | 0.00 | 0.34 | 0.34 | 93 | 1010.5 |
| 20260502200021 | 54 | 306 | 0.0 | 0.0 | 0.00 | 0.00 | 0.34 | 93 | 1010.7 |
| 20260502195846 | 54 | 306 | 0.0 | 2.0 | 0.00 | 0.34 | 0.34 | 93 | 1010.6 |
| 20260502195346 | 54 | 246 | 0.0 | 1.0 | 0.00 | 0.36 | 0.34 | 93 | 1010.6 |
| 20260502194846 | 54 | 246 | 0.0 | 2.0 | 0.00 | 0.36 | 0.34 | 93 | 1010.7 |
| 20260502194513 | 54 | 246 | 1.0 | 0.0 | 0.00 | 0.00 | 0.34 | 94 | 1010.8 |
| 20260502194344 | 54 | 247 | 0.0 | 4.0 | 0.00 | 0.36 | 0.34 | 94 | 1010.8 |
| 20260502193844 | 54 | 295 | 1.0 | 4.0 | 0.00 | 0.36 | 0.34 | 94 | 1010.9 |
| 20260502193347 | 54 | 302 | 1.0 | 2.0 | 0.00 | 0.36 | 0.34 | 94 | 1011.0 |
| 20260502193113 | 53 | 263 | 0.0 | 0.0 | 0.00 | 0.00 | 0.34 | 94 | 1011.1 |
| 20260502193003 | 53 | 263 | 0.0 | 0.0 | 0.00 | 0.00 | 0.34 | 94 | 1011.2 |
| 20260502192848 | 54 | 263 | 0.0 | 2.0 | 0.00 | 0.36 | 0.34 | 94 | 1011.1 |
| 20260502192346 | 54 | 263 | 0.0 | 5.0 | 0.00 | 0.36 | 0.34 | 94 | 1011.1 |
| 20260502191846 | 54 | 199 | 0.0 | 5.0 | 0.00 | 0.36 | 0.34 | 94 | 1011.1 |
| 20260502191550 | 54 | 5 | 0.0 | 0.0 | 0.00 | 0.00 | 0.34 | 94 | 1011.2 |
| 20260502191347 | 54 | 5 | 1.0 | 1.0 | 0.00 | 0.36 | 0.34 | 94 | 1011.2 |
| 20260502190845 | 54 | 360 | 0.0 | 1.0 | 0.00 | 0.36 | 0.34 | 94 | 1011.1 |
| 20260502190340 | 54 | 360 | 0.0 | 2.0 | 0.00 | 0.36 | 0.34 | 94 | 1011.1 |
| 20260502190017 | 53 | 5 | 0.0 | 0.0 | 0.00 | 0.00 | 0.34 | 94 | 1011.3 |
| 20260502185842 | 54 | 360 | 0.0 | 2.0 | 0.00 | 0.36 | 0.34 | 94 | 1011.2 |
| 20260502185344 | 54 | 5 | 0.0 | 1.0 | 0.00 | 0.38 | 0.34 | 94 | 1011.2 |
| 20260502184845 | 54 | 5 | 0.0 | 1.0 | 0.01 | 0.38 | 0.34 | 94 | 1011.2 |
| 20260502184510 | 53 | 5 | 0.0 | 0.0 | 0.00 | 0.00 | 0.34 | 94 | 1011.3 |
| 20260502184347 | 54 | 5 | 0.0 | 2.0 | 0.01 | 0.38 | 0.34 | 94 | 1011.2 |
| 20260502183844 | 54 | 360 | 0.0 | 2.0 | 0.01 | 0.38 | 0.34 | 94 | 1011.3 |
| 20260502183345 | 54 | 360 | 1.0 | 2.0 | 0.01 | 0.38 | 0.34 | 94 | 1011.2 |
| 20260502183055 | 53 | 360 | 0.0 | 0.0 | 0.00 | 0.00 | 0.34 | 95 | 1011.4 |
| 20260502182846 | 54 | 360 | 1.0 | 2.0 | 0.01 | 0.38 | 0.34 | 95 | 1011.3 |
| 20260502182348 | 54 | 5 | 0.0 | 1.0 | 0.02 | 0.38 | 0.34 | 94 | 1011.4 |
| 20260502181849 | 53 | 5 | 0.0 | 1.0 | 0.02 | 0.38 | 0.34 | 94 | 1011.4 |
| 20260502181547 | 53 | 5 | 0.0 | 0.0 | 0.00 | 0.00 | 0.34 | 94 | 1011.8 |
| 20260502181351 | 53 | 5 | 0.0 | 1.0 | 0.02 | 0.38 | 0.34 | 94 | 1011.8 |
| 20260502180851 | 53 | 360 | 0.0 | 1.0 | 0.02 | 0.38 | 0.34 | 94 | 1011.7 |
| 20260502180342 | 53 | 360 | 0.0 | 1.0 | 0.02 | 0.38 | 0.34 | 94 | 1011.6 |
| 20260502170353 | 53 | 321 | 0.0 | 1.0 | 0.06 | 0.36 | 0.32 | 94 | 1011.7 |
| 20260502163850 | 53 | 273 | 0.0 | 1.0 | 0.05 | 0.34 | 0.30 | 94 | 1012.1 |
| 20260502163352 | 52 | 273 | 0.0 | 1.0 | 0.04 | 0.33 | 0.29 | 94 | 1012.4 |
| 20260502163024 | 52 | 273 | 0.0 | 0.0 | 0.00 | 0.00 | 0.28 | 94 | 1012.6 |
| 20260502162853 | 52 | 273 | 0.0 | 1.0 | 0.05 | 0.33 | 0.29 | 94 | 1012.6 |
| 20260502162335 | 52 | 253 | 0.0 | 2.0 | 0.04 | 0.32 | 0.28 | 94 | 1012.7 |
| 20260502161904 | 52 | 253 | 0.0 | 2.0 | 0.04 | 0.32 | 0.28 | 94 | 1012.7 |
| 20260502161534 | 52 | 252 | 0.0 | 0.0 | 0.00 | 0.00 | 0.27 | 94 | 1012.6 |
| 20260502161344 | 52 | 286 | 0.0 | 2.0 | 0.03 | 0.31 | 0.27 | 94 | 1012.5 |
| 20260502160843 | 53 | 286 | 0.0 | 2.0 | 0.03 | 0.30 | 0.26 | 94 | 1012.6 |
| 20260502160337 | 53 | 286 | 0.0 | 1.0 | 0.03 | 0.30 | 0.26 | 94 | 1012.5 |
| 20260502152332 | 54 | 286 | 1.0 | 4.0 | 0.03 | 0.28 | 0.24 | 94 | 1012.4 |
| 20260502151832 | 54 | 294 | 1.0 | 2.0 | 0.04 | 0.28 | 0.24 | 94 | 1012.4 |
| 20260502151504 | 53 | 294 | 1.0 | 0.0 | 0.00 | 0.00 | 0.24 | 94 | 1012.4 |
| 20260502151332 | 54 | 294 | 1.0 | 2.0 | 0.05 | 0.28 | 0.24 | 94 | 1012.4 |
| 20260502150832 | 54 | 327 | 0.0 | 2.0 | 0.05 | 0.27 | 0.23 | 94 | 1012.4 |
| 20260502150353 | 54 | 292 | 0.0 | 1.0 | 0.05 | 0.27 | 0.23 | 94 | 1012.5 |
| 20260502130330 | 53 | 284 | 0.0 | 1.0 | 0.06 | 0.20 | 0.14 | 94 | 1011.6 |
| 20260502123341 | 53 | 307 | 0.0 | 3.0 | 0.06 | 0.18 | 0.12 | 94 | 1011.1 |
| 20260502123028 | 52 | 333 | 0.0 | 0.0 | 0.00 | 0.00 | 0.11 | 94 | 1011.1 |
| 20260502122841 | 53 | 261 | 0.0 | 1.0 | 0.06 | 0.17 | 0.11 | 94 | 1011.0 |
| 20260502122341 | 53 | 262 | 0.0 | 1.0 | 0.06 | 0.17 | 0.11 | 94 | 1011.0 |
| 20260502121839 | 53 | 262 | 0.0 | 1.0 | 0.05 | 0.16 | 0.10 | 94 | 1011.0 |
| 20260502121518 | 52 | 262 | 0.0 | 0.0 | 0.00 | 0.00 | 0.10 | 94 | 1011.1 |
| 20260502121338 | 53 | 261 | 0.0 | 1.0 | 0.05 | 0.15 | 0.09 | 94 | 1011.0 |
| 20260502120839 | 53 | 261 | 0.0 | 2.0 | 0.05 | 0.15 | 0.09 | 94 | 1011.0 |
| 20260502120332 | 53 | 261 | 0.0 | 2.0 | 0.04 | 0.14 | 0.08 | 94 | 1011.1 |
| 20260502115918 | 53 | 262 | 0.0 | 1.0 | 0.04 | 0.14 | 0.08 | 94 | 1011.1 |
| 20260502115350 | 53 | 261 | 0.0 | 1.0 | 0.04 | 0.13 | 0.07 | 94 | 1011.1 |
| 20260502114851 | 53 | 262 | 0.0 | 1.0 | 0.04 | 0.13 | 0.07 | 94 | 1011.2 |
| 20260502114510 | 52 | 261 | 0.0 | 0.0 | 0.00 | 0.00 | 0.06 | 94 | 1011.3 |
| 20260502114349 | 53 | 261 | 0.0 | 1.0 | 0.03 | 0.12 | 0.06 | 94 | 1011.3 |
| 20260502113849 | 53 | 261 | 0.0 | 1.0 | 0.03 | 0.12 | 0.06 | 94 | 1011.3 |
| 20260502113330 | 53 | 261 | 0.0 | 0.0 | 0.04 | 0.12 | 0.06 | 94 | 1011.3 |
| 20260502113120 | 52 | 262 | 0.0 | 0.0 | 0.00 | 0.00 | 0.06 | 94 | 1011.3 |
| 20260502112830 | 53 | 261 | 0.0 | 1.0 | 0.03 | 0.11 | 0.05 | 94 | 1011.3 |
| 20260502112356 | 53 | 261 | 0.0 | 1.0 | 0.03 | 0.11 | 0.05 | 94 | 1011.4 |
| 20260502111857 | 53 | 262 | 0.0 | 1.0 | 0.03 | 0.11 | 0.05 | 94 | 1011.4 |
| 20260502111526 | 52 | 261 | 0.0 | 0.0 | 0.00 | 0.00 | 0.05 | 94 | 1011.5 |
| 20260502111336 | 53 | 262 | 1.0 | 1.0 | 0.02 | 0.10 | 0.04 | 94 | 1011.5 |
| 20260502110838 | 53 | 262 | 0.0 | 1.0 | 0.02 | 0.10 | 0.04 | 94 | 1011.5 |
| 20260502110333 | 53 | 262 | 0.0 | 1.0 | 0.02 | 0.10 | 0.04 | 94 | 1011.5 |
| 20260502110054 | 53 | 261 | 0.0 | 0.0 | 0.00 | 0.00 | 0.04 | 93 | 1011.6 |
| 20260502105835 | 53 | 262 | 0.0 | 2.0 | 0.02 | 0.10 | 0.04 | 93 | 1011.5 |
| 20260502105334 | 53 | 262 | 1.0 | 2.0 | 0.01 | 0.09 | 0.03 | 93 | 1011.4 |
| 20260502104857 | 53 | 304 | 0.0 | 2.0 | 0.01 | 0.09 | 0.03 | 94 | 1011.4 |
| 20260502104527 | 53 | 303 | 0.0 | 0.0 | 0.00 | 0.00 | 0.03 | 94 | 1011.5 |
| 20260502104336 | 53 | 315 | 0.0 | 2.0 | 0.01 | 0.09 | 0.03 | 94 | 1011.4 |
| 20260502103836 | 54 | 315 | 0.0 | 2.0 | 0.01 | 0.09 | 0.03 | 94 | 1011.4 |
| 20260502103337 | 54 | 216 | 0.0 | 2.0 | 0.00 | 0.08 | 0.02 | 94 | 1011.4 |
| 20260502103014 | 53 | 219 | 0.0 | 0.0 | 0.00 | 0.00 | 0.02 | 94 | 1011.5 |
| 20260502102840 | 54 | 270 | 0.0 | 3.0 | 0.00 | 0.08 | 0.02 | 94 | 1011.5 |
| 20260502102340 | 53 | 270 | 1.0 | 3.0 | 0.00 | 0.08 | 0.02 | 94 | 1011.5 |
| 20260502101838 | 54 | 355 | 0.0 | 2.0 | 0.01 | 0.08 | 0.02 | 94 | 1011.4 |
| 20260502101610 | 53 | 355 | 0.0 | 0.0 | 0.00 | 0.00 | 0.02 | 94 | 1011.4 |
| 20260502101407 | 53 | 355 | 0.0 | 2.0 | 0.01 | 0.08 | 0.02 | 94 | 1011.3 |
| 20260502100845 | 53 | 205 | 0.0 | 1.0 | 0.02 | 0.08 | 0.02 | 94 | 1011.5 |
| 20260502100338 | 53 | 205 | 1.0 | 1.0 | 0.02 | 0.08 | 0.02 | 94 | 1011.4 |
| 20260502091339 | 53 | 84 | 0.0 | 1.0 | 0.01 | 0.07 | 0.01 | 94 | 1011.2 |
| 20260502090839 | 53 | 83 | 0.0 | 2.0 | 0.00 | 0.06 | 0.00 | 94 | 1011.3 |
| 20260502090333 | 53 | 84 | 0.0 | 2.0 | 0.00 | 0.06 | 0.00 | 94 | 1011.2 |
| 20260502071533 | 52 | 69 | 0.0 | 0.0 | 0.00 | 0.00 | 0.00 | 94 | 1010.4 |
| 20260502071343 | 53 | 69 | 0.0 | 0.0 | 0.00 | 0.06 | 0.00 | 94 | 1010.4 |
| 20260502070844 | 53 | 68 | 0.0 | 0.0 | 0.00 | 0.06 | 0.00 | 94 | 1010.4 |
| 20260502070352 | 53 | 69 | 0.0 | 0.0 | 0.00 | 0.06 | 0.00 | 94 | 1010.4 |
| 20260502070115 | 52 | 68 | 0.0 | 0.0 | 0.00 | 0.00 | 0.00 | 93 | 1010.5 |
| 20260502065854 | 53 | 69 | 0.0 | 0.0 | 0.00 | 0.06 | 0.00 | 93 | 1010.5 |
| 20260502065351 | 53 | 68 | 0.0 | 0.0 | 0.00 | 0.06 | 0.00 | 93 | 1010.6 |
| 20260502064858 | 53 | 69 | 0.0 | 0.0 | 0.00 | 0.06 | 0.00 | 93 | 1010.6 |
| 20260502064508 | 52 | 69 | 0.0 | 0.0 | 0.00 | 0.00 | 0.00 | 93 | 1010.7 |
| 20260502064339 | 53 | 69 | 0.0 | 0.0 | 0.00 | 0.06 | 0.00 | 93 | 1010.7 |
| 20260502063839 | 53 | 68 | 0.0 | 0.0 | 0.00 | 0.06 | 0.00 | 93 | 1010.7 |
| 20260502063341 | 53 | 68 | 0.0 | 0.0 | 0.00 | 0.06 | 0.00 | 93 | 1010.7 |
| 20260502063108 | 52 | 69 | 0.0 | 0.0 | 0.00 | 0.00 | 0.00 | 93 | 1010.7 |
| 20260502062844 | 53 | 68 | 0.0 | 0.0 | 0.00 | 0.06 | 0.00 | 93 | 1010.7 |
| 20260502062344 | 53 | 69 | 0.0 | 0.0 | 0.00 | 0.06 | 0.00 | 93 | 1010.8 |
| 20260502061846 | 53 | 69 | 0.0 | 0.0 | 0.00 | 0.06 | 0.00 | 93 | 1010.8 |
| 20260502061543 | 52 | 69 | 0.0 | 0.0 | 0.00 | 0.00 | 0.00 | 93 | 1010.9 |
| 20260502061346 | 53 | 69 | 0.0 | 0.0 | 0.00 | 0.06 | 0.00 | 93 | 1010.8 |
| 20260502060846 | 53 | 69 | 0.0 | 0.0 | 0.00 | 0.06 | 0.00 | 93 | 1010.9 |
| 20260502060333 | 53 | 69 | 0.0 | 0.0 | 0.00 | 0.06 | 0.00 | 93 | 1010.9 |
| 20260502060029 | 52 | 68 | 0.0 | 0.0 | 0.00 | 0.00 | 0.00 | 93 | 1011.0 |
| 20260502055900 | 53 | 68 | 0.0 | 0.0 | 0.00 | 0.06 | 0.00 | 93 | 1010.9 |
| 20260502055340 | 53 | 68 | 0.0 | 0.0 | 0.00 | 0.06 | 0.00 | 93 | 1010.9 |
| 20260502054849 | 0 | 0.0 | 0.0 | 0.00 | 0.06 | 0.00 | 1011.0 | ||
| 20260502054601 | 0 | 0.0 | 0.0 | 0.00 | 0.00 | 0.00 | 1011.1 | ||
| 20260502054353 | 0 | 0.0 | 0.0 | 0.00 | 0.06 | 0.00 | 1011.1 | ||
| 20260502053836 | 0 | 0.0 | 0.0 | 0.00 | 0.06 | 0.00 | 1011.2 | ||
| 20260502053340 | 0 | 0.0 | 0.0 | 0.00 | 0.06 | 0.00 | 1011.2 | ||
| 20260502053056 | 0 | 0.0 | 0.0 | 0.00 | 0.00 | 0.00 | 1011.2 | ||
| 20260502052835 | 0 | 0.0 | 0.0 | 0.00 | 0.06 | 0.00 | 1011.1 | ||
| 20260502052339 | 0 | 0.0 | 0.0 | 0.00 | 0.06 | 0.00 | 1011.3 | ||
| 20260502051909 | 0 | 0.0 | 0.0 | 0.00 | 0.06 | 0.00 | 1011.3 | ||
| 20260502051502 | 0 | 0.0 | 0.0 | 0.00 | 0.00 | 0.00 | 1011.4 | ||
| 20260502051343 | 0 | 0.0 | 0.0 | 0.00 | 0.06 | 0.00 | 1011.4 | ||
| 20260502050844 | 0 | 0.0 | 0.0 | 0.00 | 0.06 | 0.00 | 1011.6 | ||
| 20260502050337 | 0 | 0.0 | 0.0 | 0.00 | 0.06 | 0.00 | 1011.5 | ||
| 20260502050034 | 0 | 0.0 | 0.0 | 0.00 | 0.00 | 0.00 | 1011.6 | ||
| 20260502045832 | 0 | 0.0 | 0.0 | 0.00 | 0.06 | 0.00 | 1011.7 | ||
| 20260502045346 | 0 | 0.0 | 0.0 | 0.00 | 0.06 | 0.00 | 1011.7 | ||
| 20260502044847 | 0 | 0.0 | 0.0 | 0.00 | 0.06 | 0.00 | 1011.6 | ||
| 20260502044536 | 0 | 0.0 | 0.0 | 0.00 | 0.00 | 0.00 | 1011.7 | ||
| 20260502044352 | 0 | 0.0 | 0.0 | 0.00 | 0.06 | 0.00 | 1011.6 | ||
| 20260502043847 | 0 | 0.0 | 0.0 | 0.00 | 0.06 | 0.00 | 1011.7 | ||
| 20260502043351 | 0 | 0.0 | 0.0 | 0.00 | 0.06 | 0.00 | 1011.6 | ||
| 20260502043110 | 0 | 0.0 | 0.0 | 0.00 | 0.00 | 0.00 | 1011.7 | ||
| 20260502042834 | 0 | 0.0 | 0.0 | 0.00 | 0.06 | 0.00 | 1011.6 | ||
| 20260502042351 | 0 | 0.0 | 0.0 | 0.00 | 0.06 | 0.00 | 1011.7 | ||
| 20260502041854 | 0 | 0.0 | 0.0 | 0.00 | 0.06 | 0.00 | 1011.8 | ||
| 20260502041609 | 0 | 0.0 | 0.0 | 0.00 | 0.00 | 0.00 | 1011.8 | ||
| 20260502041354 | 0 | 0.0 | 0.0 | 0.00 | 0.06 | 0.00 | 1011.7 | ||
| 20260502040835 | 0 | 0.0 | 0.0 | 0.00 | 0.06 | 0.00 | 1011.7 | ||
| 20260502040329 | 0 | 0.0 | 0.0 | 0.00 | 0.06 | 0.00 | 1011.6 | ||
| 20260502040047 | 0 | 0.0 | 0.0 | 0.00 | 0.00 | 0.06 | 1011.6 | ||
| 20260502035829 | 0 | 0.0 | 0.0 | 0.00 | 0.06 | 0.06 | 1011.6 | ||
| 20260502035333 | 0 | 0.0 | 0.0 | 0.00 | 0.06 | 0.06 | 1011.6 | ||
| 20260502034837 | 0 | 0.0 | 0.0 | 0.00 | 0.06 | 0.06 | 1011.7 | ||
| 20260502034544 | 0 | 0.0 | 0.0 | 0.00 | 0.00 | 0.06 | 1011.8 | ||
| 20260502034339 | 0 | 0.0 | 0.0 | 0.00 | 0.06 | 0.06 | 1011.7 | ||
| 20260502033844 | 0 | 0.0 | 0.0 | 0.00 | 0.06 | 0.06 | 1011.7 | ||
| 20260502033358 | 0 | 0.0 | 0.0 | 0.00 | 0.06 | 0.06 | 1011.6 | ||
| 20260502033006 | 0 | 0.0 | 0.0 | 0.00 | 0.00 | 0.06 | 1011.7 | ||
| 20260502032845 | 0 | 0.0 | 0.0 | 0.00 | 0.06 | 0.06 | 1011.8 | ||
| 20260502032330 | 0 | 0.0 | 0.0 | 0.00 | 0.06 | 0.06 | 1011.9 | ||
| 20260502031834 | 0 | 0.0 | 0.0 | 0.00 | 0.06 | 0.06 | 1012.0 | ||
| 20260502031616 | 53 | 69 | 0.0 | 0.0 | 0.00 | 0.00 | 0.06 | 93 | 1012.1 |
| 20260502031336 | 53 | 69 | 0.0 | 0.0 | 0.00 | 0.06 | 0.06 | 93 | 1012.0 |
| 20260502030838 | 53 | 69 | 0.0 | 1.0 | 0.00 | 0.06 | 0.06 | 93 | 1012.2 |
| 20260502030335 | 53 | 69 | 0.0 | 1.0 | 0.00 | 0.06 | 0.06 | 93 | 1012.3 |
| 20260502030050 | 53 | 69 | 0.0 | 0.0 | 0.00 | 0.00 | 0.06 | 93 | 1012.3 |
| 20260502025904 | 53 | 68 | 0.0 | 0.0 | 0.00 | 0.06 | 0.06 | 93 | 1012.3 |
| 20260502025346 | 53 | 69 | 0.0 | 0.0 | 0.00 | 0.06 | 0.06 | 93 | 1012.3 |
| 20260502024847 | 53 | 69 | 0.0 | 0.0 | 0.00 | 0.06 | 0.06 | 93 | 1012.2 |
| 20260502024606 | 53 | 69 | 0.0 | 0.0 | 0.00 | 0.00 | 0.06 | 93 | 1012.3 |
| 20260502024506 | 53 | 69 | 0.0 | 0.0 | 0.00 | 0.00 | 0.06 | 93 | 1012.3 |
| 20260502024348 | 53 | 69 | 0.0 | 0.0 | 0.00 | 0.06 | 0.06 | 93 | 1012.3 |
| 20260502023850 | 53 | 68 | 0.0 | 0.0 | 0.00 | 0.06 | 0.06 | 93 | 1012.3 |
| 20260502023351 | 53 | 69 | 0.0 | 0.0 | 0.00 | 0.06 | 0.06 | 93 | 1012.3 |
| 20260502023044 | 53 | 69 | 0.0 | 0.0 | 0.00 | 0.00 | 0.06 | 93 | 1012.4 |
| 20260502022831 | 53 | 68 | 0.0 | 1.0 | 0.00 | 0.06 | 0.06 | 92 | 1012.4 |
| 20260502022331 | 53 | 68 | 0.0 | 1.0 | 0.00 | 0.06 | 0.06 | 92 | 1012.4 |
| 20260502021833 | 53 | 69 | 0.0 | 1.0 | 0.00 | 0.06 | 0.06 | 92 | 1012.3 |
| 20260502021519 | 53 | 68 | 0.0 | 0.0 | 0.00 | 0.00 | 0.06 | 92 | 1012.4 |
| 20260502021335 | 53 | 69 | 0.0 | 1.0 | 0.00 | 0.06 | 0.06 | 92 | 1012.2 |
| 20260502020858 | 53 | 69 | 0.0 | 0.0 | 0.00 | 0.06 | 0.06 | 92 | 1012.3 |
| 20260502020349 | 53 | 68 | 0.0 | 0.0 | 0.00 | 0.06 | 0.06 | 92 | 1012.4 |
| 20260502020025 | 53 | 68 | 0.0 | 0.0 | 0.00 | 0.00 | 0.06 | 92 | 1012.5 |
| 20260502015849 | 53 | 68 | 0.0 | 1.0 | 0.00 | 0.06 | 0.06 | 92 | 1012.4 |
| 20260502015351 | 53 | 68 | 0.0 | 1.0 | 0.00 | 0.06 | 0.06 | 92 | 1012.3 |
| 20260502014850 | 53 | 69 | 1.0 | 1.0 | 0.00 | 0.06 | 0.06 | 92 | 1012.3 |
| 20260502014515 | 53 | 69 | 0.0 | 0.0 | 0.00 | 0.00 | 0.06 | 92 | 1012.4 |
| 20260502014331 | 53 | 69 | 0.0 | 1.0 | 0.00 | 0.06 | 0.06 | 92 | 1012.3 |
| 20260502013832 | 54 | 68 | 0.0 | 1.0 | 0.00 | 0.06 | 0.06 | 92 | 1012.1 |
| 20260502013333 | 54 | 68 | 0.0 | 0.0 | 0.00 | 0.06 | 0.06 | 92 | 1012.2 |
| 20260502013006 | 53 | 69 | 0.0 | 0.0 | 0.00 | 0.00 | 0.06 | 92 | 1012.2 |
| 20260502012901 | 54 | 69 | 0.0 | 1.0 | 0.00 | 0.06 | 0.06 | 92 | 1012.3 |
| 20260502012341 | 54 | 68 | 0.0 | 1.0 | 0.00 | 0.06 | 0.06 | 92 | 1012.2 |
| 20260502011845 | 54 | 69 | 0.0 | 1.0 | 0.00 | 0.06 | 0.06 | 92 | 1012.3 |
| 20260502011600 | 53 | 69 | 0.0 | 0.0 | 0.00 | 0.00 | 0.06 | 92 | 1012.2 |
| 20260502011410 | 54 | 69 | 0.0 | 1.0 | 0.00 | 0.06 | 0.06 | 92 | 1012.1 |
| 20260502010829 | 54 | 69 | 0.0 | 0.0 | 0.00 | 0.06 | 0.06 | 92 | 1011.9 |
| 20260502010342 | 54 | 69 | 0.0 | 0.0 | 0.00 | 0.06 | 0.06 | 92 | 1011.7 |
| 20260502010047 | 54 | 69 | 0.0 | 0.0 | 0.00 | 0.00 | 0.06 | 92 | 1011.9 |
| 20260502005846 | 54 | 68 | 0.0 | 0.0 | 0.00 | 0.06 | 0.06 | 92 | 1011.9 |
| 20260502005347 | 54 | 69 | 0.0 | 0.0 | 0.00 | 0.06 | 0.06 | 92 | 1011.7 |
| 20260502004828 | 0 | 0.0 | 0.0 | 0.00 | 0.06 | 0.06 | 1011.9 | ||
| 20260502004513 | 0 | 0.0 | 0.0 | 0.00 | 0.00 | 0.06 | 1011.9 | ||
| 20260502004332 | 0 | 0.0 | 0.0 | 0.00 | 0.06 | 0.06 | 1011.9 | ||
| 20260502003903 | 0 | 0.0 | 0.0 | 0.00 | 0.06 | 0.06 | 1011.7 | ||
| 20260502003348 | 55 | 68 | 0.0 | 0.0 | 0.00 | 0.06 | 0.06 | 92 | 1011.6 |
| 20260502002828 | 55 | 68 | 0.0 | 0.0 | 0.00 | 0.06 | 0.06 | 92 | 1011.6 |
| 20260502002342 | 55 | 69 | 0.0 | 0.0 | 0.00 | 0.06 | 0.06 | 92 | 1011.4 |
| 20260502001843 | 55 | 69 | 0.0 | 0.0 | 0.00 | 0.06 | 0.06 | 92 | 1011.5 |
| 20260502001535 | 54 | 69 | 0.0 | 0.0 | 0.00 | 0.00 | 0.06 | 92 | 1011.4 |
| 20260502001344 | 55 | 69 | 0.0 | 0.0 | 0.00 | 0.06 | 0.06 | 92 | 1011.4 |
| 20260502000844 | 55 | 68 | 0.0 | 0.0 | 0.00 | 0.06 | 0.06 | 92 | 1011.5 |
| 20260502000339 | 55 | 68 | 0.0 | 0.0 | 0.00 | 0.06 | 0.06 | 92 | 1011.3 |
| 20260502000107 | 54 | 69 | 0.0 | 0.0 | 0.00 | 0.00 | 0.06 | 92 | 1011.4 |
| 20260501235838 | 55 | 69 | 0.0 | 0.0 | 0.00 | 0.06 | 0.06 | 92 | 1011.4 |
| 20260501235338 | 55 | 69 | 0.0 | 0.0 | 0.00 | 0.06 | 0.06 | 92 | 1011.5 |
| 20260501234838 | 55 | 69 | 0.0 | 0.0 | 0.00 | 0.06 | 0.06 | 92 | 1011.5 |
| 20260501234540 | 54 | 69 | 0.0 | 0.0 | 0.00 | 0.00 | 0.06 | 91 | 1011.6 |
| 20260501234340 | 55 | 69 | 0.0 | 0.0 | 0.00 | 0.06 | 0.06 | 91 | 1011.5 |
| 20260501233842 | 55 | 68 | 0.0 | 0.0 | 0.00 | 0.06 | 0.06 | 91 | 1011.6 |